User: anonymous   Login
Location: Unspecified
(0.0000°N, 0.0000°E)
Time: 01:52:52
(UTC+00:00)
Language:

Explorer 11/Cluster Stage 4 - Orbit

View from above orbital plane
View from above orbital plane
View from above satellite
View from above satellite

Ground track
Ground track

The orbit data is extracted from the following two-line orbital elements,

1   107U 61013A   16337.95969106 +.00000418 +00000-0 +35667-4 0  9998
2   107 028.7883 277.0637 0550081 162.5841 199.4418 14.08136009783831
Epoch (UTC): 02 December 2016 23:01:57
Eccentricity: 0.0550081
inclination: 28.7883°
perigee height: 467 km
apogee height: 1264 km
right ascension of ascending node: 277.0637°
argument of perigee: 162.5841°
revolutions per day: 14.08136009
mean anomaly at epoch: 199.4418°
orbit number at epoch: 78383

The dashed part of the orbit path shows where the satellite is in the earth's shadow,  

DLR